Location: Estes Par
(40.3770°N, 105.5210°W)
Time: 15:30:06
(UTC-06:00)

Vanguard 2 Rocket - Visible Passes

Search period start: 21 October 2017 00:00
Search period end: 31 October 2017 00:00
Orbit: 555 x 3327 km, 32.9° (Epoch: 20 October)

Date Brightness Start Highest point End Pass type
(mag) Time Alt. Az. Time Alt. Az. Time Alt. Az.
21 Oct 10.8 19:35:39 10° WSW 19:44:48 21° SSW 19:56:40 10° S visible
22 Oct 10.5 18:35:10 10° WSW 18:44:11 26° SSW 18:56:58 10° SSE visible
23 Oct 11.1 19:54:00 10° SW 19:59:12 13° SW 20:05:09 10° SSW visible
24 Oct 10.9 18:51:41 10° WSW 18:58:40 17° SSW 19:07:35 10° S visible
